RYR47QP LIRP-EICK

Flight info

Callsign RYR47QP
Flight time N/A
Altitude 36000
Route BEROK DCT CANNE DCT BEGAR DCT SUTAL N852 DIK M624 BUB L608 DENUT L610 KOPUL Q60 OKSAW DCT PENWU DCT GOTEM GOTEM1G
Aircraft B738/M-SDE2E3FGHIRWXY/LB1

Departure

Time 2026-05-04 13:42
Airport Pisa International Airport (LIRP)

Arrival

Time N/A
Airport Cork International Airport (EICK)
Time Latitude Longitude Altitude Speed Heading
2026-05-04 13:20 43.69757 10.40093 14 ft 0 kts
2026-05-04 13:23 43.69757 10.40092 14 ft 0 kts
2026-05-04 13:23 43.69757 10.40093 14 ft 0 kts
2026-05-04 13:23 43.69757 10.40092 14 ft 0 kts
2026-05-04 13:33 43.69745 10.40091 14 ft 2 kts 337°
2026-05-04 13:33 43.69730 10.40101 17 ft 2 kts 313°
2026-05-04 13:34 43.69720 10.40120 14 ft 2 kts 288°
2026-05-04 13:34 43.69717 10.40142 14 ft 2 kts 269°
2026-05-04 13:34 43.69718 10.40157 14 ft 1 kts 251°
2026-05-04 13:34 43.69718 10.40158 14 ft 0 kts 250°
2026-05-04 13:38 43.69707 10.40127 14 ft 11 kts 244°
2026-05-04 13:39 43.69654 10.40057 14 ft 11 kts 186°
2026-05-04 13:39 43.69577 10.40067 15 ft 11 kts 171°
2026-05-04 13:39 43.69570 10.40068 15 ft 0 kts 172°
2026-05-04 13:39 43.69564 10.40070 17 ft 6 kts 170°
2026-05-04 13:40 43.69476 10.40089 16 ft 14 kts 171°
2026-05-04 13:40 43.69384 10.40115 22 ft 9 kts 155°
2026-05-04 13:40 43.69345 10.40177 20 ft 10 kts 126°
2026-05-04 13:40 43.69339 10.40189 19 ft 0 kts 126°
2026-05-04 13:41 43.69338 10.40191 19 ft 3 kts 126°
2026-05-04 13:41 43.69294 10.40274 18 ft 13 kts 126°
2026-05-04 13:41 43.69253 10.40324 19 ft 2 kts 170°
2026-05-04 13:42 43.69151 10.40226 21 ft 50 kts 217°
2026-05-04 13:42 43.68666 10.39726 17 ft 120 kts 217°
2026-05-04 13:42 43.67853 10.38885 96 ft 168 kts 214°
2026-05-04 13:42 43.66880 10.37901 798 ft 178 kts 215°
2026-05-04 13:43 43.65879 10.36870 1739 ft 181 kts 212°
2026-05-04 13:43 43.64852 10.35823 2566 ft 185 kts 212°
2026-05-04 13:43 43.63799 10.34766 3460 ft 189 kts 217°
2026-05-04 13:43 43.62978 10.33258 4071 ft 204 kts 243°
2026-05-04 13:44 43.62789 10.31263 4604 ft 222 kts 278°
2026-05-04 13:44 43.63503 10.29393 5132 ft 232 kts 313°
2026-05-04 13:44 43.64632 10.27806 5838 ft 232 kts 311°
2026-05-04 13:44 43.65720 10.26111 6408 ft 239 kts 307°
2026-05-04 13:45 43.66865 10.24429 6962 ft 246 kts 323°
2026-05-04 13:45 43.68461 10.23591 7513 ft 251 kts 356°
2026-05-04 13:45 43.70150 10.24079 8155 ft 249 kts 33°
2026-05-04 13:45 43.71529 10.25433 8970 ft 247 kts 40°
2026-05-04 13:46 43.72905 10.26889 9669 ft 251 kts 40°
2026-05-04 13:46 43.74307 10.28354 10326 ft 256 kts 36°
2026-05-04 13:46 43.75940 10.29506 10719 ft 275 kts 22°
2026-05-04 13:46 43.77823 10.30458 10929 ft 301 kts 20°
2026-05-04 13:47 43.79884 10.31450 11130 ft 326 kts 20°
2026-05-04 13:47 43.82092 10.32549 11338 ft 349 kts 21°
2026-05-04 13:47 43.84409 10.33741 11845 ft 359 kts 21°
2026-05-04 13:47 43.86767 10.34973 12592 ft 363 kts 20°
2026-05-04 13:48 43.89222 10.35784 13305 ft 367 kts
2026-05-04 13:48 43.91775 10.35522 14030 ft 369 kts 351°
2026-05-04 13:48 43.94330 10.35070 14744 ft 371 kts 351°
2026-05-04 13:48 43.96904 10.34634 15443 ft 374 kts 351°
2026-05-04 13:49 43.99506 10.34290 16140 ft 378 kts 356°
2026-05-04 13:49 44.02145 10.34333 16860 ft 381 kts
2026-05-04 13:49 44.04798 10.34532 17553 ft 384 kts
2026-05-04 13:49 44.07477 10.34739 18120 ft 388 kts
2026-05-04 13:50 44.10194 10.34906 18706 ft 391 kts 360°
2026-05-04 13:50 44.12917 10.35041 19259 ft 393 kts 359°
2026-05-04 13:50 44.15659 10.35081 19805 ft 394 kts 352°
2026-05-04 13:50 44.18290 10.34118 20315 ft 392 kts 333°
2026-05-04 13:51 44.20741 10.32454 20890 ft 394 kts 330°
2026-05-04 13:51 44.23191 10.30697 21420 ft 397 kts 330°
2026-05-04 13:51 44.25652 10.28910 21923 ft 401 kts 330°
2026-05-04 13:51 44.28095 10.27136 22412 ft 403 kts 330°
2026-05-04 13:52 44.33165 10.23482 23335 ft 411 kts 330°
2026-05-04 13:52 44.35685 10.21677 23782 ft 414 kts 330°
2026-05-04 13:52 44.38259 10.19837 24220 ft 416 kts 330°
2026-05-04 13:53 44.40847 10.17990 24649 ft 418 kts 330°
2026-05-04 13:53 44.43446 10.16135 25056 ft 420 kts 330°
2026-05-04 13:53 44.46057 10.14270 25440 ft 422 kts 330°
2026-05-04 13:54 44.51318 10.10507 26208 ft 427 kts 330°
2026-05-04 13:54 44.53976 10.08602 26589 ft 429 kts 330°
2026-05-04 13:54 44.59317 10.04769 27288 ft 434 kts 330°
2026-05-04 13:55 44.62015 10.02831 27638 ft 436 kts 330°
2026-05-04 13:55 44.67414 9.98945 28290 ft 441 kts 330°
2026-05-04 13:55 44.70147 9.96974 28615 ft 444 kts 330°
2026-05-04 13:56 44.72910 9.94980 28946 ft 446 kts 330°
2026-05-04 13:56 44.75674 9.92983 29283 ft 448 kts 330°
2026-05-04 13:56 44.81261 9.88939 29894 ft 453 kts 330°
2026-05-04 13:57 44.84068 9.86905 30192 ft 455 kts 330°
2026-05-04 13:57 44.86891 9.84856 30477 ft 456 kts 330°
2026-05-04 13:58 44.95257 9.78775 31801 ft 446 kts 330°
2026-05-04 13:58 45.00754 9.74767 32510 ft 443 kts 329°
2026-05-04 13:58 45.03461 9.72788 32851 ft 442 kts 329°
2026-05-04 13:59 45.06188 9.70794 33223 ft 440 kts 329°
2026-05-04 13:59 45.08901 9.68808 33603 ft 438 kts 329°
2026-05-04 13:59 45.14326 9.64830 34265 ft 435 kts 329°
2026-05-04 14:00 45.17015 9.62855 34517 ft 435 kts 329°
2026-05-04 14:00 45.22353 9.58927 34980 ft 435 kts 328°
2026-05-04 14:00 45.25036 9.56950 35231 ft 434 kts 328°
2026-05-04 14:01 45.27710 9.54977 35468 ft 434 kts 328°
2026-05-04 14:01 45.30391 9.52998 35699 ft 433 kts 328°
2026-05-04 14:01 45.35672 9.49092 36087 ft 434 kts 328°
2026-05-04 14:02 45.38345 9.47111 36071 ft 437 kts 328°
2026-05-04 14:02 45.43741 9.43106 36064 ft 437 kts 328°
2026-05-04 14:03 45.49088 9.39134 36070 ft 431 kts 328°
2026-05-04 14:03 45.53520 9.35831 36091 ft 435 kts 328°
2026-05-04 14:03 45.56215 9.33817 36212 ft 439 kts 328°
2026-05-04 14:04 45.62578 9.29058 36188 ft 448 kts 328°
2026-05-04 14:04 45.68127 9.24900 36160 ft 453 kts 328°
2026-05-04 14:05 45.75625 9.19270 36120 ft 456 kts 328°
2026-05-04 14:06 45.81221 9.15057 36083 ft 450 kts 328°
2026-05-04 14:06 45.86687 9.10933 36091 ft 446 kts 328°